Location: Walnut Point State Park
(39.6958°N, 88.0345°W)
Time: 13:53:23
(UTC-05:00)

Amateur Radio Satellites - All Passes

Search period start: 26 June 2016 13:23
Search period end: 27 June 2016 13:23
Location: Walnut Point State Park, 39.6958°N, 88.0345°W

Satellite Date Start Highest point End Downlink Frequencies (MHz)
Time Altitude Azimuth
BEESAT 3 26 Jun 13:29:39 13:32:16 17° 249° (WSW) 13:34:53 437.485
PHONESAT 2.4 26 Jun 13:35:04 13:37:09 17° 211° (SSW) 13:39:14 2401.200-2431.200
Gurwin Techsat 1B 26 Jun 13:35:10 13:40:08 42° 70° (ENE) 13:45:08 435.225
CUBEBUG 1 26 Jun 13:37:07 13:40:26 22° 292° (WNW) 13:43:45 437.445
Oscar 19 26 Jun 13:38:00 13:43:10 79° 257° (WSW) 13:48:20 437.125/150
VELOX 1 26 Jun 13:38:22 13:41:53 24° 292° (WNW) 13:45:25 145.980
O/OREOS (USA 219) 26 Jun 13:48:32 13:52:52 49° 253° (WSW) 13:57:11 437.305
YUBILEINY 26 Jun 13:49:02 13:57:41 71° 279° (W) 14:06:28 435.215
SWISSCUBE 26 Jun 13:50:50 13:51:21 10° 89° (E) 13:51:52 437.505
JAS-2 26 Jun 13:53:41 14:00:24 32° 265° (W) 14:06:46 435.910
AO-7 26 Jun 13:54:33 14:00:27 22° 53° (NE) 14:06:21 29.400- 29.500
ITAMSAT 1 26 Jun 13:56:12 14:00:21 25° 65° (ENE) 14:04:31 435.822/435.867
BEESAT 2 26 Jun 14:02:58 14:05:06 14° 251° (WSW) 14:07:13 435.950
Cosmos 2491 26 Jun 14:05:57 14:12:37 25° 278° (W) 14:19:17 435.465 / 435.565
RS-15 26 Jun 14:06:13 14:17:12 48° 315° (NW) 14:28:49 29.354- 29.394
ISS 26 Jun 14:11:03 14:12:37 13° 13° (NNE) 14:14:12 145.825
ITUPSAT 1 26 Jun 14:13:28 14:16:35 17° 93° (E) 14:19:40 437.325
BEESAT 26 Jun 14:14:01 14:17:12 17° 93° (E) 14:20:23 436.000
AIST 2 26 Jun 14:22:39 14:26:42 48° 55° (NE) 14:30:43 435.215
TISAT 1 26 Jun 14:32:00 14:36:04 50° 287° (WNW) 14:40:08 437.305
Cosmos 2504 26 Jun 14:34:32 14:42:29 76° 94° (E) 14:51:05 435.465 / 435.565
UKube-1 26 Jun 14:35:06 14:35:38 10° 299° (WNW) 14:36:09 .
SPROUT 26 Jun 14:40:25 14:42:01 12° 297° (WNW) 14:43:37 437.525
Gurwin Techsat 1B 26 Jun 15:16:04 15:20:14 23° 266° (W) 15:24:24 435.225
SWISSCUBE 26 Jun 15:24:52 15:29:41 78° 285° (WNW) 15:34:27 437.505
ITAMSAT 1 26 Jun 15:34:42 15:39:34 40° 262° (W) 15:44:29 435.822/435.867
KKS-1 26 Jun 15:42:09 15:44:58 16° 93° (E) 15:47:46 437.445
AO-7 26 Jun 15:43:50 15:52:11 87° 252° (WSW) 16:00:36 29.400- 29.500
SO-50 26 Jun 15:44:34 15:48:33 26° 112° (ESE) 15:52:34 436.795
ISS 26 Jun 15:46:37 15:49:45 41° 32° (NNE) 15:52:52 145.825
ITUPSAT 1 26 Jun 15:50:01 15:54:40 49° 288° (WNW) 15:59:16 437.325
BEESAT 26 Jun 15:50:37 15:55:13 47° 288° (WNW) 15:59:47 436.000
YUBILEINY 26 Jun 15:52:23 15:56:15 13° 301° (WNW) 16:00:10 435.215
AIST 2 26 Jun 16:02:22 16:04:47 15° 251° (WSW) 16:07:10 435.215
HORYU 2 26 Jun 16:04:26 16:07:59 24° 67° (ENE) 16:11:32 437.375
STARS 26 Jun 16:20:22 16:23:44 21° 95° (E) 16:27:05 437.465
RS-15 26 Jun 16:25:16 16:33:51 22° 347° (NNW) 16:42:41 29.354- 29.394
Cosmos 2504 26 Jun 16:30:47 16:36:50 22° 295° (WNW) 16:43:13 435.465 / 435.565
MOZHAYETS 4 26 Jun 16:50:29 16:55:10 86° 102° (ESE) 16:59:48
NOAA 15 26 Jun 16:55:36 16:59:21 20° 63° (ENE) 17:03:05 137.62
NOAA 18 26 Jun 16:59:59 17:03:39 19° 61° (ENE) 17:07:20 137.9125
BRITE-PL 26 Jun 17:05:05 17:08:45 20° 68° (ENE) 17:12:14 437.365/2234.400
KKS-1 26 Jun 17:17:30 17:21:43 43° 289° (WNW) 17:25:56 437.445
ISS 26 Jun 17:23:30 17:26:00 21° 228° (SW) 17:28:32 145.825
Cubesat XI-IV 26 Jun 17:23:38 17:27:56 26° 65° (ENE) 17:32:17 437.490
SO-50 26 Jun 17:24:15 17:28:52 39° 309° (NW) 17:33:27 436.795
Cosmos 2499 26 Jun 17:31:15 17:34:05 12° 73° (ENE) 17:36:57 435.465 / 435.565
HORYU 2 26 Jun 17:40:30 17:44:23 30° 263° (W) 17:48:18 437.375
AO-7 26 Jun 17:41:12 17:45:58 16° 270° (W) 17:50:48 29.400- 29.500
AIST 1 26 Jun 17:46:31 17:50:50 73° 277° (W) 17:55:10
GOMX 1 26 Jun 17:50:28 17:54:11 24° 69° (ENE) 17:57:44 467.674
GONETS M04 26 Jun 17:51:33 17:58:45 30° 84° (E) 18:05:57
STARS 26 Jun 17:56:11 18:00:08 33° 290° (WNW) 18:04:04 437.465
CUTE-I 26 Jun 17:57:42 18:02:51 52° 71° (ENE) 18:08:03 437.470
CUBESAT XI-V 26 Jun 18:11:48 18:16:27 72° 102° (ESE) 18:21:01 437.345
JUGNU 26 Jun 18:17:48 18:18:33 10° 181° (S) 18:19:19 437.505
CUSAT 1 26 Jun 18:27:21 18:30:34 24° 70° (ENE) 18:33:12 437.405
LilacSat-2 26 Jun 18:27:52 18:31:38 81° 258° (WSW) 18:35:27 437.200
DANDE 26 Jun 18:29:29 18:32:13 14° 60° (ENE) 18:34:35 436.750
MOZHAYETS 4 26 Jun 18:31:19 18:31:36 10° 299° (WNW) 18:31:52
NOAA 15 26 Jun 18:33:32 18:38:42 53° 260° (W) 18:43:53 137.62
NOAA 18 26 Jun 18:38:25 18:43:48 60° 258° (WSW) 18:49:14 137.9125
BRITE-PL 26 Jun 18:42:01 18:46:58 45° 261° (W) 18:51:35 437.365/2234.400
RS-15 26 Jun 18:42:48 18:52:27 26° 23° (NNE) 19:02:09 29.354- 29.394
CUTE 1.7 + AOD 2 26 Jun 18:55:13 18:57:03 13° 64° (ENE) 18:58:55 437.475
DOVE 4 26 Jun 19:01:24 19:05:43 60° 75° (ENE) 19:09:53 437.250
Cubesat XI-IV 26 Jun 19:02:46 19:07:46 40° 262° (W) 19:12:49 437.490
SEEDS 26 Jun 19:04:00 19:05:13 11° 63° (ENE) 19:06:27 437.485
Cosmos 2499 26 Jun 19:17:17 19:25:24 71° 93° (E) 19:34:06 435.465 / 435.565
HO-68 26 Jun 19:27:55 19:34:44 50° 67° (ENE) 19:41:36 435.675
GOMX 1 26 Jun 19:27:57 19:32:09 31° 263° (W) 19:36:08 467.674
CUTE-I 26 Jun 19:39:27 19:43:11 19° 267° (W) 19:46:57 437.470
GONETS M04 26 Jun 19:46:33 19:55:03 56° 282° (WNW) 20:03:34
AAUSAT CUBESAT 2 26 Jun 19:47:34 19:50:32 19° 67° (ENE) 19:53:30 437.432
AUBIESAT-1 26 Jun 19:49:32 19:50:53 12° 61° (ENE) 19:52:14 437.475
CUBESAT XI-V 26 Jun 19:51:32 19:53:11 12° 298° (WNW) 19:54:51 437.345
CANX-2 26 Jun 20:07:38 20:11:55 87° 262° (W) 20:16:14 2200.000
CUSAT 1 26 Jun 20:10:35 20:12:09 12° 277° (W) 20:13:36 437.405
DANDE 26 Jun 20:10:50 20:15:48 48° 268° (W) 20:19:30 436.750
CINEMA 3 26 Jun 20:13:12 20:17:22 76° 259° (W) 20:21:31 145.822/145.860
STRAND 1 26 Jun 20:16:07 20:21:19 87° 104° (ESE) 20:26:27 437.568
COMPASS 1 26 Jun 20:18:08 20:22:13 52° 74° (ENE) 20:26:21 437.405
M-CUBED/EXP-1 PRIME 26 Jun 20:25:00 20:28:07 43° 69° (ENE) 20:31:14 437.505
CUBEBUG 2 26 Jun 20:25:09 20:29:02 40° 72° (ENE) 20:33:00 437.445
CUTE 1.7 + AOD 2 26 Jun 20:28:11 20:32:23 58° 260° (W) 20:36:38 437.475
SEEDS 26 Jun 20:36:08 20:40:20 66° 259° (W) 20:44:36 437.485
PRISM 26 Jun 20:37:47 20:40:50 20° 95° (E) 20:43:51 437.425
DOVE 4 26 Jun 20:42:46 20:43:45 11° 269° (W) 20:44:44 437.250
RS-15 26 Jun 20:55:48 21:08:05 64° 52° (NE) 21:20:14 29.354- 29.394
ZACube-1 26 Jun 21:00:49 21:04:48 45° 73° (ENE) 21:08:53 437.345
Cosmos 2499 26 Jun 21:12:52 21:19:22 25° 294° (WNW) 21:26:13 435.465 / 435.565
Oscar 11 26 Jun 21:14:36 21:18:55 73° 76° (ENE) 21:23:16 145.826/435.025
AO-85 26 Jun 21:14:50 21:19:13 26° 111° (ESE) 21:23:33 145.980
HO-68 26 Jun 21:16:31 21:22:38 30° 264° (W) 21:28:48 435.675
UWE-3 26 Jun 21:16:49 21:20:58 74° 258° (WSW) 21:25:13 435.000/436.395/437.385
FUNcube-1 26 Jun 21:19:25 21:23:33 71° 76° (ENE) 21:27:49 145.935
AAUSAT CUBESAT 2 26 Jun 21:21:56 21:25:45 34° 263° (W) 21:29:37 437.432
AUBIESAT-1 26 Jun 21:22:04 21:25:06 34° 257° (WSW) 21:28:09 437.475
DELFI C3 26 Jun 21:50:54 21:54:56 86° 77° (ENE) 21:59:00 145.870
COMPASS 1 26 Jun 21:56:22 21:58:05 12° 269° (W) 21:59:48 437.405
STRAND 1 26 Jun 21:57:51 21:59:43 12° 301° (WNW) 22:01:35 437.568
CUBEBUG 2 26 Jun 22:03:25 22:05:53 15° 268° (W) 22:08:22 437.445
PRISM 26 Jun 22:12:36 22:16:10 29° 290° (WNW) 22:19:43 437.425
TIGRISAT 26 Jun 22:19:21 22:22:42 19° 93° (E) 22:26:03 435.000
UNISAT 6 26 Jun 22:23:30 22:27:11 23° 94° (E) 22:30:52 437.425
HUMSAT D 26 Jun 22:32:02 22:36:09 71° 259° (WSW) 22:40:22 437.325/437.525
DX 1 26 Jun 22:33:48 22:34:07 10° 61° (ENE) 22:34:26 434.975-435.025
ZACube-1 26 Jun 22:39:09 22:41:21 14° 269° (W) 22:43:34 437.345
AO-85 26 Jun 22:54:16 22:59:30 47° 307° (NW) 23:04:34 145.980
CUBEBUG 1 26 Jun 22:55:53 22:59:24 24° 68° (ENE) 23:02:55 437.445
VELOX 1 26 Jun 22:58:27 23:02:01 24° 68° (ENE) 23:05:35 145.980
ANTELSAT 26 Jun 23:02:42 23:07:18 59° 101° (E) 23:11:56 437.575/2403.000
50 SAT 26 Jun 23:04:04 23:07:11 26° 70° (ENE) 23:10:20 437.505
RS-15 26 Jun 23:09:02 23:19:58 40° 254° (WSW) 23:30:47 29.354- 29.394
Cosmos 2491 26 Jun 23:17:12 23:20:55 13° 75° (ENE) 23:24:37 435.465 / 435.565
QB50P2 26 Jun 23:20:18 23:22:45 15° 92° (E) 23:25:11 145.880/145.840
POLYITAN 1 26 Jun 23:22:51 23:25:22 15° 92° (E) 23:27:54 437.675
ESTCUBE 1 26 Jun 23:25:25 23:29:56 78° 77° (ENE) 23:34:30 437.505/2401.250
DUCHIFAT 1 26 Jun 23:25:27 23:27:43 14° 92° (E) 23:29:59 145.980
AISAT 26 Jun 23:38:04 23:42:28 70° 74° (ENE) 23:46:51 437.250
UKube-1 26 Jun 23:49:21 23:53:34 55° 73° (ENE) 23:57:47 .
SPROUT 26 Jun 23:55:01 23:59:00 41° 72° (ENE) 00:03:00 437.525
TIGRISAT 26 Jun 23:55:10 23:59:31 40° 288° (WNW) 00:03:53 435.000
UNISAT 6 26 Jun 23:59:44 00:03:55 34° 290° (WNW) 00:08:09 437.425
YUBILEINY 27 Jun 00:00:10 00:08:51 57° 78° (ENE) 00:17:29 435.215
DX 1 27 Jun 00:05:19 00:09:40 77° 257° (WSW) 00:14:01 434.975-435.025
SO-50 27 Jun 00:16:39 00:20:09 20° 44° (NE) 00:23:36 436.795
BUGSAT 1 27 Jun 00:28:33 00:32:14 32° 97° (E) 00:35:57 437.445
Cosmos 2504 27 Jun 00:28:41 00:36:07 29° 68° (ENE) 00:43:18 435.465 / 435.565
CUBEBUG 1 27 Jun 00:31:46 00:35:33 28° 264° (W) 00:39:20 437.445
VELOX 1 27 Jun 00:34:30 00:38:21 29° 263° (W) 00:42:12 145.980
NANOSAT C BR1 27 Jun 00:37:52 00:42:06 77° 285° (WNW) 00:46:21 145.865
50 SAT 27 Jun 00:38:11 00:40:51 19° 266° (W) 00:43:32 437.505
QB50P1 27 Jun 00:39:42 00:43:57 70° 284° (WNW) 00:48:11 145.935-145.965
ANTELSAT 27 Jun 00:41:00 00:43:31 15° 296° (WNW) 00:46:02 437.575/2403.000
POPSAT HIP 1 27 Jun 00:42:44 00:46:57 65° 286° (WNW) 00:51:11 437.405
QB50P2 27 Jun 00:54:42 00:58:45 44° 287° (WNW) 01:02:48 145.880/145.840
SWISSCUBE 27 Jun 00:55:55 00:57:52 12° 61° (ENE) 00:59:50 437.505
POLYITAN 1 27 Jun 00:57:19 01:01:22 43° 288° (WNW) 01:05:25 437.675
DUCHIFAT 1 27 Jun 00:59:35 01:03:38 46° 287° (WNW) 01:07:41 145.980
JAS-2 27 Jun 01:04:28 01:09:46 39° 97° (E) 01:14:39 435.910
Cosmos 2491 27 Jun 01:07:25 01:16:11 78° 94° (E) 01:24:56 435.465 / 435.565
ITUPSAT 1 27 Jun 01:19:34 01:22:55 19° 64° (ENE) 01:26:16 437.325
BEESAT 27 Jun 01:19:47 01:23:10 20° 65° (ENE) 01:26:34 436.000
TISAT 1 27 Jun 01:22:22 01:26:31 78° 258° (WSW) 01:30:42 437.305
UKube-1 27 Jun 01:28:12 01:29:55 12° 269° (W) 01:31:40 .
PCSat 27 Jun 01:30:57 01:34:20 17° 104° (ESE) 01:37:44 145.827
SPROUT 27 Jun 01:32:32 01:35:07 16° 267° (W) 01:37:43 437.525
Oscar 19 27 Jun 01:50:34 01:55:21 38° 98° (E) 02:00:06 437.125/150
Gurwin Techsat 1B 27 Jun 01:53:07 01:56:39 18° 92° (E) 02:00:09 435.225
SO-50 27 Jun 01:56:26 02:00:57 51° 243° (WSW) 02:05:18 436.795
YUBILEINY 27 Jun 01:57:47 02:05:06 31° 277° (W) 02:12:26 435.215
BUGSAT 1 27 Jun 02:04:28 02:07:24 19° 293° (WNW) 02:10:21 437.445
Cosmos 2504 27 Jun 02:21:21 02:30:07 64° 268° (W) 02:38:29 435.465 / 435.565
O/OREOS (USA 219) 27 Jun 02:21:51 02:25:08 20° 101° (E) 02:28:24 437.305
SWISSCUBE 27 Jun 02:30:14 02:35:01 75° 258° (WSW) 02:39:50 437.505
KKS-1 27 Jun 02:40:09 02:42:34 15° 64° (ENE) 02:44:59 437.445
JAS-2 27 Jun 02:50:01 02:54:37 25° 297° (WNW) 02:58:54 435.910
ITUPSAT 1 27 Jun 02:55:47 03:00:23 46° 261° (W) 03:05:02 437.325
BEESAT 27 Jun 02:56:03 03:00:37 44° 261° (W) 03:05:13 436.000
Cosmos 2491 27 Jun 03:07:31 03:13:57 22° 294° (WNW) 03:20:25 435.465 / 435.565
PCSat 27 Jun 03:11:48 03:17:10 63° 301° (WNW) 03:22:34 145.827
STARS 27 Jun 03:16:47 03:19:42 18° 65° (ENE) 03:22:38 437.465
BEESAT 3 27 Jun 03:17:59 03:21:54 87° 296° (WNW) 03:25:52 437.485
Oscar 19 27 Jun 03:30:21 03:34:26 25° 294° (WNW) 03:38:32 437.125/150
Gurwin Techsat 1B 27 Jun 03:31:43 03:36:55 55° 288° (WNW) 03:42:05 435.225
AO-7 27 Jun 03:46:56 03:54:20 33° 97° (E) 04:01:39 29.400- 29.500
ITAMSAT 1 27 Jun 03:47:53 03:53:09 77° 103° (ESE) 03:58:22 435.822/435.867
MOZHAYETS 4 27 Jun 03:51:09 03:55:45 73° 76° (ENE) 04:00:24
BEESAT 2 27 Jun 03:52:12 03:56:08 68° 303° (WNW) 04:00:07 435.950
AIST 1 27 Jun 03:54:52 03:58:20 24° 75° (ENE) 04:01:46
O/OREOS (USA 219) 27 Jun 04:00:07 04:04:15 36° 297° (WNW) 04:08:25 437.305
GONETS M04 27 Jun 04:03:39 04:07:37 14° 59° (ENE) 04:11:35
KKS-1 27 Jun 04:14:22 04:18:41 53° 260° (W) 04:23:01 437.445
Cosmos 2504 27 Jun 04:20:07 04:21:33 10° 288° (WNW) 04:22:59 435.465 / 435.565
AIST 2 27 Jun 04:21:56 04:23:26 12° 108° (ESE) 04:24:55 435.215
STARS 27 Jun 04:51:38 04:55:44 40° 261° (W) 04:59:52 437.465
BEESAT 3 27 Jun 04:59:32 05:00:13 10° 320° (NW) 05:00:54 437.485
PCSat 27 Jun 04:59:55 05:01:40 11° 321° (NW) 05:03:26 145.827
Cosmos 2499 27 Jun 05:10:34 05:17:37 26° 67° (ENE) 05:24:20 435.465 / 435.565
CUBESAT XI-V 27 Jun 05:13:52 05:18:32 63° 74° (ENE) 05:23:11 437.345
ITAMSAT 1 27 Jun 05:29:21 05:31:56 14° 300° (WNW) 05:34:31 435.822/435.867
HORYU 2 27 Jun 05:31:28 05:35:52 52° 100° (E) 05:40:15 437.375
AIST 1 27 Jun 05:32:22 05:35:50 25° 271° (W) 05:39:18
MOZHAYETS 4 27 Jun 05:32:44 05:33:24 10° 271° (W) 05:34:05
AO-7 27 Jun 05:39:15 05:47:19 54° 295° (WNW) 05:55:22 29.400- 29.500
AO-85 27 Jun 05:47:53 05:50:54 17° 42° (NE) 05:53:46 145.980
STRAND 1 27 Jun 05:55:02 05:57:40 14° 61° (ENE) 06:00:19 437.568
AIST 2 27 Jun 05:57:19 06:01:22 59° 303° (WNW) 06:05:28 435.215
GONETS M04 27 Jun 05:57:25 06:06:09 72° 81° (E) 06:14:53
LilacSat-2 27 Jun 06:04:01 06:05:24 12° 91° (E) 06:06:46 437.200
CUTE-I 27 Jun 06:16:16 06:20:23 22° 94° (E) 06:24:29 437.470
BRITE-PL 27 Jun 06:47:27 06:51:33 58° 101° (E) 06:55:40 437.365/2234.400
NOAA 15 27 Jun 06:49:21 06:54:34 62° 102° (ESE) 06:59:44 137.62
CUBESAT XI-V 27 Jun 06:54:18 06:56:17 12° 270° (W) 06:58:17 437.345
NOAA 18 27 Jun 07:01:07 07:06:38 62° 102° (ESE) 07:12:06 137.9125
DOVE 4 27 Jun 07:01:29 07:04:14 16° 93° (E) 07:07:04 437.250
Cosmos 2499 27 Jun 07:02:46 07:11:30 69° 267° (W) 07:19:42 435.465 / 435.565
HORYU 2 27 Jun 07:09:23 07:11:59 15° 296° (WNW) 07:14:35 437.375
Cubesat XI-IV 27 Jun 07:20:20 07:25:46 86° 107° (ESE) 07:31:08 437.490
CUSAT 1 27 Jun 07:24:10 07:31:46 52° 94° (E) 07:38:23 437.405
PRISM 27 Jun 07:27:19 07:29:36 15° 65° (ENE) 07:31:52 437.425
AO-85 27 Jun 07:27:26 07:31:50 59° 242° (WSW) 07:35:51 145.980
GOMX 1 27 Jun 07:29:26 07:33:38 76° 101° (E) 07:38:00 467.674
STRAND 1 27 Jun 07:31:05 07:36:12 73° 257° (WSW) 07:41:22 437.568
DANDE 27 Jun 07:31:31 07:38:41 33° 88° (E) 07:45:34 436.750
AO-7 27 Jun 07:35:32 07:38:13 12° 316° (NW) 07:40:53 29.400- 29.500
LilacSat-2 27 Jun 07:36:12 07:39:56 46° 286° (WNW) 07:43:40 437.200
PHONESAT 2.4 27 Jun 07:40:58 07:43:49 35° 157° (SSE) 07:46:39 2401.200-2431.200
CANX-2 27 Jun 07:54:35 07:57:26 17° 92° (E) 08:00:17 2200.000
CUTE-I 27 Jun 07:55:30 08:00:37 45° 290° (WNW) 08:05:42 437.470
GONETS M04 27 Jun 07:55:46 08:02:03 23° 280° (W) 08:08:22
CINEMA 3 27 Jun 08:08:20 08:12:10 27° 96° (E) 08:16:09 145.822/145.860
CUTE 1.7 + AOD 2 27 Jun 08:14:21 08:17:54 25° 95° (E) 08:21:25 437.475
SEEDS 27 Jun 08:21:32 08:24:48 21° 94° (E) 08:28:02 437.485
ISS 27 Jun 08:26:22 08:28:40 18° 131° (SE) 08:30:58 145.825
BRITE-PL 27 Jun 08:28:21 08:29:33 11° 297° (WNW) 08:30:45 437.365/2234.400
NOAA 15 27 Jun 08:30:32 08:33:48 17° 298° (WNW) 08:37:03 137.62
DOVE 4 27 Jun 08:38:02 08:42:05 41° 287° (WNW) 08:46:20 437.250
NOAA 18 27 Jun 08:43:03 08:46:45 19° 299° (WNW) 08:50:28 137.9125
HO-68 27 Jun 08:43:39 08:50:44 56° 102° (ESE) 08:57:46 435.675
ZACube-1 27 Jun 08:52:53 08:53:19 10° 89° (E) 08:53:45 437.345
Cosmos 2499 27 Jun 09:00:13 09:02:47 12° 287° (WNW) 09:05:19 435.465 / 435.565
PRISM 27 Jun 09:00:29 09:04:30 46° 260° (W) 09:08:32 437.425
AUBIESAT-1 27 Jun 09:01:42 09:03:31 13° 99° (E) 09:05:23 437.475
Cubesat XI-IV 27 Jun 09:02:46 09:05:04 13° 301° (WNW) 09:07:20 437.490
Oscar 11 27 Jun 09:04:08 09:06:31 14° 92° (E) 09:08:52 145.826/435.025
AAUSAT CUBESAT 2 27 Jun 09:04:47 09:08:39 36° 97° (E) 09:12:28 437.432
CUSAT 1 27 Jun 09:07:10 09:13:57 32° 287° (WNW) 09:19:55 437.405
UWE-3 27 Jun 09:07:21 09:11:05 24° 95° (E) 09:14:52 435.000/436.395/437.385
FUNcube-1 27 Jun 09:09:16 09:11:59 15° 92° (E) 09:14:42 145.935
DANDE 27 Jun 09:12:57 09:21:11 57° 283° (WNW) 09:29:00 436.750
PHONESAT 2.4 27 Jun 09:17:14 09:20:18 82° 350° (N) 09:23:24 2401.200-2431.200
TIGRISAT 27 Jun 09:18:20 09:20:44 15° 64° (ENE) 09:23:10 435.000
UNISAT 6 27 Jun 09:22:25 09:25:16 17° 65° (ENE) 09:28:09 437.425
CANX-2 27 Jun 09:29:27 09:33:27 38° 288° (WNW) 09:37:23 2200.000
DELFI C3 27 Jun 09:31:36 09:32:57 11° 91° (E) 09:34:16 145.870
COMPASS 1 27 Jun 09:37:06 09:41:18 72° 284° (WNW) 09:45:26 437.405
M-CUBED/EXP-1 PRIME 27 Jun 09:37:57 09:41:39 41° 105° (ESE) 09:45:37 437.505
CINEMA 3 27 Jun 09:45:22 09:49:15 29° 290° (WNW) 09:53:16 145.822/145.860
CUTE 1.7 + AOD 2 27 Jun 09:50:05 09:53:40 26° 291° (WNW) 09:57:14 437.475
CUBEBUG 2 27 Jun 09:52:22 09:56:58 76° 284° (WNW) 10:01:40 437.445
SEEDS 27 Jun 09:56:47 10:00:30 30° 290° (WNW) 10:04:12 437.485
ANTELSAT 27 Jun 10:00:48 10:04:53 44° 72° (ENE) 10:09:03 437.575/2403.000
ISS 27 Jun 10:01:42 10:04:52 46° 327° (NNW) 10:08:02 145.825
QB50P2 27 Jun 10:14:01 10:14:57 11° 63° (ENE) 10:15:54 145.880/145.840
POLYITAN 1 27 Jun 10:16:29 10:17:34 11° 63° (ENE) 10:18:39 437.675
HUMSAT D 27 Jun 10:16:58 10:20:09 20° 94° (E) 10:23:18 437.325/437.525
PCSat 27 Jun 10:18:36 10:21:40 15° 42° (NE) 10:24:42 145.827
ZACube-1 27 Jun 10:25:31 10:30:02 73° 285° (WNW) 10:34:36 437.345
HO-68 27 Jun 10:32:06 10:38:01 29° 299° (WNW) 10:43:55 435.675
AUBIESAT-1 27 Jun 10:34:21 10:38:08 50° 291° (WNW) 10:42:10 437.475
Oscar 11 27 Jun 10:38:42 10:42:54 47° 287° (WNW) 10:47:04 145.826/435.025
AAUSAT CUBESAT 2 27 Jun 10:41:01 10:43:50 18° 293° (WNW) 10:46:39 437.432
UWE-3 27 Jun 10:43:29 10:47:32 32° 290° (WNW) 10:51:38 435.000/436.395/437.385
FUNcube-1 27 Jun 10:44:05 10:48:26 48° 287° (WNW) 10:52:50 145.935
TIGRISAT 27 Jun 10:52:51 10:56:59 48° 261° (W) 11:01:13 435.000
PHONESAT 2.4 27 Jun 10:53:55 10:57:00 88° 0° (N) 11:00:05 2401.200-2431.200
UNISAT 6 27 Jun 10:57:36 11:01:38 40° 262° (W) 11:05:46 437.425
DANDE 27 Jun 11:02:54 11:05:28 12° 301° (WNW) 11:07:59 436.750
DELFI C3 27 Jun 11:04:13 11:08:05 49° 286° (WNW) 11:11:55 145.870
YUBILEINY 27 Jun 11:11:55 11:13:16 10° 73° (ENE) 11:14:36 435.215
M-CUBED/EXP-1 PRIME 27 Jun 11:13:35 11:15:57 16° 297° (WNW) 11:18:26 437.505
JAS-2 27 Jun 11:15:21 11:20:51 23° 62° (ENE) 11:26:02 435.910
BUGSAT 1 27 Jun 11:18:08 11:21:06 20° 68° (ENE) 11:24:05 437.445
RS-15 27 Jun 11:18:35 11:28:50 42° 107° (ESE) 11:39:33 29.354- 29.394
Cosmos 2491 27 Jun 11:19:14 11:27:08 37° 72° (ENE) 11:34:58 435.465 / 435.565
ESTCUBE 1 27 Jun 11:19:53 11:22:51 17° 93° (E) 11:25:47 437.505/2401.250
NANOSAT C BR1 27 Jun 11:28:52 11:33:00 68° 74° (ENE) 11:37:10 145.865
AISAT 27 Jun 11:30:38 11:32:54 14° 92° (E) 11:35:10 437.250
QB50P1 27 Jun 11:30:58 11:35:09 76° 75° (ENE) 11:39:21 145.935-145.965
POPSAT HIP 1 27 Jun 11:34:02 11:38:13 81° 77° (ENE) 11:42:26 437.405
BEESAT 3 27 Jun 11:36:04 11:39:49 39° 53° (NE) 11:43:32 437.485
ANTELSAT 27 Jun 11:39:22 11:41:51 15° 268° (W) 11:44:21 437.575/2403.000
ISS 27 Jun 11:40:16 11:41:57 13° 346° (NNW) 11:43:38 145.825
QB50P2 27 Jun 11:46:00 11:50:11 67° 259° (W) 11:54:23 145.880/145.840
POLYITAN 1 27 Jun 11:48:39 11:52:47 65° 258° (WSW) 11:56:59 437.675
DUCHIFAT 1 27 Jun 11:50:10 11:54:19 72° 259° (W) 11:58:29 145.980
HUMSAT D 27 Jun 11:51:56 11:55:50 34° 289° (WNW) 11:59:43 437.325/437.525
DX 1 27 Jun 11:55:10 11:58:15 19° 94° (E) 12:01:20 434.975-435.025
PCSat 27 Jun 12:00:24 12:05:52 86° 62° (ENE) 12:11:17 145.827
50 SAT 27 Jun 12:06:58 12:10:24 35° 98° (E) 12:13:47 437.505
BEESAT 2 27 Jun 12:10:57 12:14:52 52° 55° (NE) 12:18:45 435.950
CUBEBUG 1 27 Jun 12:20:24 12:24:37 52° 100° (E) 12:28:51 437.445
VELOX 1 27 Jun 12:24:39 12:28:58 53° 100° (E) 12:33:15 145.980
PHONESAT 2.4 27 Jun 12:30:43 12:33:27 29° 205° (SSW) 12:36:10 2401.200-2431.200
O/OREOS (USA 219) 27 Jun 12:31:25 12:35:32 34° 62° (ENE) 12:39:37 437.305
BUGSAT 1 27 Jun 12:52:48 12:56:19 29° 263° (W) 12:59:49 437.445
ESTCUBE 1 27 Jun 12:55:35 12:59:50 42° 288° (WNW) 13:04:03 437.505/2401.250
JAS-2 27 Jun 12:57:30 13:05:16 76° 257° (WSW) 13:12:24 435.910
YUBILEINY 27 Jun 12:59:38 13:08:12 67° 92° (E) 13:16:51 435.215
AISAT 27 Jun 13:05:24 13:09:39 50° 287° (WNW) 13:13:54 437.250
Oscar 19 27 Jun 13:06:27 13:11:26 52° 72° (ENE) 13:16:26 437.125/150
Cosmos 2504 27 Jun 13:07:16 13:13:02 22° 79° (E) 13:19:03 435.465 / 435.565
TISAT 1 27 Jun 13:08:05 13:10:50 17° 93° (E) 13:13:33 437.305
UKube-1 27 Jun 13:13:00 13:17:18 70° 285° (WNW) 13:21:34 .
Gurwin Techsat 1B 27 Jun 13:13:09 13:17:32 27° 66° (ENE) 13:21:56 435.225
BEESAT 3 27 Jun 13:14:39 13:17:11 17° 250° (WSW) 13:19:42 437.485
ISS 27 Jun 13:18:35 13:19:32 11° 7° (N) 13:20:30 145.825
